Location: Poprad
(49.0500°N, 20.3000°E)
Time: 19:28:46
(UTC+02:00)

CAS-6 - Pass Details

Date: 28 April 2024
Orbit: 607 x 628 km, 97.8° (Epoch: 21 May)

Event Time Altitude Azimuth Distance (km) Brightness Sun altitude
Exits shadow 21:36:52 18° 95° (E) 1,520 ? -15.1°
Maximum altitude 21:38:31 23° 63° (ENE) 1,337 ? -15.3°
Drops below altitude 10° 21:41:52 10° 12° (NNE) 1,982 ? -15.7°
Sets 21:44:24 0° 358° (N) 2,888 ? -16.0°
